Карточка аэропорта USRR

Внимание!
Информация на этой странице в стадии наполнения.
Если вы не увидели какой-то информации, или заметили неточность - пожалуйста сообщите нам!
Спасибо!
Команда RU-STAFF
Название аэропортаСургут
Название аэропорта (англ.)Surgut
Превышение196 ft. (59.7 m.)
Координаты61°20.502', 73°24.168'
Высота перехода700m
Эшелон переходаFL040
Коды ответчика5570-5577
Зона ОрВДТюмень РПИ (USTV)
Данные METARUSRR 290700Z 36005MPS CAVOK 01/M03 Q1024 R07/CLRD60 NOSIG RMK QFE763
Проноз погоды (TAF)USRR 290455Z 2906/3006 36006G14MPS 9999 FEW011 SCT020 TEMPO 2906/2918 5000 -SHSN FEW006 BKN016CB
NOTAMshow/hide NOTAM
AWOS   TABLE

Информация о ВПП

ВПП Длина ВПП (м.) Покрытие Курс ВПП Частота ILS
072780Асфальтобетон73110.5
252780Асфальтобетон253109.1

Диспетчерские позиции

Позывной Наименование органа УВД Частота
USRR_APPСургут-Подход129.300
USRR_TWRСургут-Вышка120.800



Спутниковое изображение